LU4FBU-13 Weather Reports


Display with metric or nautical units.
time (UTC)temp
F
wind
direction
speed
MPH
gust
MPH
rain 1hr
in
rain 24hr
in
rain mn
in
humidity
%
barometer
mb
20260507133007 63 270 11.0 23.0 0.00 0.08 0.08 67 1002.5
20260507130408 64 203 7.0 23.0 0.00 0.08 0.08 70 1002.4
20260507124840 65 270 12.0 23.0 0.00 0.08 0.08 66 1002.6
20260507123817 65 225 14.0 21.0 0.00 0.08 0.08 69 1002.2
20260507123308 66 225 5.0 17.0 0.00 0.08 0.08 73 1001.9
20260507113616 66 180 14.0 22.0 0.00 0.08 0.08 85 1001.1
20260507113006 66 180 8.0 21.0 0.00 0.08 0.08 86 1000.7
20260507105455 67 180 13.0 18.0 0.00 0.08 0.08 87 1000.3
20260507103415 67 180 4.0 16.0 0.00 0.08 0.08 87 999.6
20260507102355 67 180 11.0 22.0 0.00 0.08 0.08 87 999.1
20260507091138 68 180 11.0 14.0 0.00 0.08 0.08 90 997.1
20260507075359 68 180 2.0 11.0 0.08 0.08 0.08 91 998.1
20260507072300 71 158 4.0 11.0 0.01 0.01 0.01 83 998.5
20260507064648 74 203 0.0 9.0 0.00 0.00 0.00 91 998.3
20260507061038 74 90 0.0 4.0 0.00 0.00 0.00 91 997.7
20260507055721 74 68 2.0 4.0 0.00 0.00 0.00 90 997.9
20260507052110 74 45 2.0 4.0 0.00 0.00 0.00 89 998.3
20260507051602 74 68 1.0 4.0 0.00 0.00 0.00 89 998.6
20260507050030 75 68 2.0 4.0 0.00 0.00 0.00 88 998.5
20260507045011 75 68 2.0 4.0 0.00 0.00 0.00 87 998.2
20260507031709 76 68 3.0 6.0 0.00 0.00 0.00 84 999.0
20260507025117 77 45 1.0 2.0 0.00 0.00 0.00 83 999.3
20260507024055 77 45 1.0 4.0 0.00 0.00 0.00 83 999.2
20260507022527 77 23 2.0 2.0 0.00 0.00 0.00 82 999.3
20260507015934 77 23 2.0 4.0 0.00 0.00 0.00 81 999.2
20260507010753 78 45 3.0 7.0 0.00 0.00 0.00 80 998.7
20260507003654 78 68 3.0 11.0 0.00 0.00 0.00 79 998.4
20260506235021 80 45 2.0 7.0 0.00 0.00 0.00 76 998.9
20260506233450 81 45 4.0 13.0 0.00 0.00 0.00 74 998.9
20260506232947 81 0 4.0 16.0 0.00 0.00 0.00 74 998.8
20260506225840 82 23 8.0 15.0 0.00 0.00 0.00 70 998.7
20260506224822 82 23 6.0 15.0 0.00 0.00 0.00 71 998.6
20260506223248 82 45 4.0 11.0 0.00 0.00 0.00 73 998.8
20260506215127 83 23 4.0 11.0 0.00 0.00 0.00 71 999.2
20260506212537 84 0 2.0 8.0 0.00 0.00 0.00 70 999.3
20260506212032 84 23 2.0 8.0 0.00 0.00 0.00 70 999.1
20260506204431 86 23 3.0 13.0 0.00 0.00 0.00 65 999.0
20260506200807 87 0 7.0 14.0 0.00 0.00 0.00 63 999.2
20260506194725 88 23 7.0 17.0 0.00 0.00 0.00 63 999.6
20260506182442 87 315 6.0 15.0 0.00 0.00 0.00 64 1000.3
20260506180401 87 23 7.0 17.0 0.00 0.00 0.00 63 1000.3
20260506173756 87 23 7.0 18.0 0.00 0.00 0.00 64 1000.7
20260506162534 87 45 6.0 14.0 0.00 0.00 0.00 66 1002.0
20260506160453 87 45 4.0 17.0 0.00 0.00 0.00 67 1002.3
20260506155434 85 45 9.0 17.0 0.00 0.00 0.00 69 1002.4
20260506154413 85 45 4.0 14.0 0.00 0.00 0.00 68 1002.6
20260506151824 84 23 6.0 16.0 0.00 0.00 0.00 71 1003.1
20260506140052 82 23 8.0 15.0 0.00 0.00 0.00 75 1004.7